Time,TemperatureF,DewpointF,PressureIn,WindDirection,WindDirectionDegrees,WindSpeedMPH,WindSpeedGustMPH,Humidity,HourlyPrecipIn,Conditions,Clouds,dailyrainin,SolarRadiationWatts/m^2,SoftwareType,DateUTC
2013-03-09 00:03:00,32.3,29.7,30.11,West,280,0.0,5.0,90,0.00,,,0.00,0,Wunderground v.1.15,2013-03-09 07:03:00,
2013-03-09 00:09:00,32.3,29.4,30.11,West,280,0.0,5.0,89,0.00,,,0.00,0,Wunderground v.1.15,2013-03-09 07:09:00,
2013-03-09 00:15:00,32.2,29.3,30.10,West,280,0.0,5.0,89,0.00,,,0.00,0,Wunderground v.1.15,2013-03-09 07:15:00,
2013-03-09 00:21:00,32.2,29.3,30.10,West,280,0.0,5.0,89,0.00,,,0.00,0,Wunderground v.1.15,2013-03-09 07:21:00,
2013-03-09 00:27:00,32.2,29.3,30.10,West,280,0.0,5.0,89,0.00,,,0.00,0,Wunderground v.1.15,2013-03-09 07:27:00,
2013-03-09 00:33:00,32.2,29.0,30.10,West,280,0.0,5.0,88,0.00,,,0.00,0,Wunderground v.1.15,2013-03-09 07:33:00,
2013-03-09 00:39:00,32.3,28.3,30.10,West,275,1.0,6.0,85,0.00,,,0.00,0,Wunderground v.1.15,2013-03-09 07:39:00,
2013-03-09 00:45:00,32.6,27.7,30.11,SW,215,1.0,5.0,82,0.00,,,0.00,0,Wunderground v.1.15,2013-03-09 07:45:00,
2013-03-09 00:51:00,32.9,27.7,30.11,WNW,289,1.0,5.0,81,0.00,,,0.00,0,Wunderground v.1.15,2013-03-09 07:51:00,
2013-03-09 00:57:00,33.3,27.2,30.11,WNW,295,1.0,5.0,78,0.00,,,0.00,0,Wunderground v.1.15,2013-03-09 07:57:00,
2013-03-09 01:02:00,33.5,27.1,30.11,West,277,1.0,5.0,77,0.00,,,0.00,0,Wunderground v.1.15,2013-03-09 08:02:00,
2013-03-09 01:08:00,33.7,27.3,30.11,West,262,1.0,5.0,77,0.00,,,0.00,0,Wunderground v.1.15,2013-03-09 08:08:00,
2013-03-09 01:14:00,34.1,26.7,30.11,WSW,257,2.0,5.0,74,0.00,,,0.00,0,Wunderground v.1.15,2013-03-09 08:14:00,
2013-03-09 01:20:00,34.3,26.9,30.12,West,268,2.0,5.0,74,0.00,,,0.00,0,Wunderground v.1.15,2013-03-09 08:20:00,
2013-03-09 01:26:00,34.4,26.6,30.12,West,272,2.0,5.0,73,0.00,,,0.00,0,Wunderground v.1.15,2013-03-09 08:26:00,
2013-03-09 01:32:00,34.4,27.0,30.13,West,275,2.0,5.0,74,0.00,,,0.00,0,Wunderground v.1.15,2013-03-09 08:32:00,
2013-03-09 01:38:00,34.3,27.2,30.13,West,268,2.0,5.0,75,0.00,,,0.00,0,Wunderground v.1.15,2013-03-09 08:38:00,
2013-03-09 01:44:00,34.1,27.3,30.13,West,281,1.0,5.0,76,0.00,,,0.00,0,Wunderground v.1.15,2013-03-09 08:44:00,
2013-03-09 01:50:00,33.8,26.4,30.13,WSW,256,2.0,5.0,74,0.00,,,0.00,0,Wunderground v.1.15,2013-03-09 08:50:00,
2013-03-09 01:56:00,33.7,26.3,30.13,West,263,2.0,5.0,74,0.00,,,0.00,0,Wunderground v.1.15,2013-03-09 08:56:00,
2013-03-09 02:02:00,33.4,25.7,30.13,WNW,293,2.0,5.0,73,0.00,,,0.00,0,Wunderground v.1.15,2013-03-09 09:02:00,
2013-03-09 02:08:00,33.3,25.6,30.13,West,263,2.0,5.0,73,0.00,,,0.00,0,Wunderground v.1.15,2013-03-09 09:08:00,
2013-03-09 02:14:00,33.1,25.7,30.13,WNW,282,1.0,5.0,74,0.00,,,0.00,0,Wunderground v.1.15,2013-03-09 09:14:00,
2013-03-09 02:19:00,32.8,25.7,30.13,SE,130,1.0,5.0,75,0.00,,,0.00,0,Wunderground v.1.15,2013-03-09 09:19:00,
2013-03-09 02:25:00,32.5,25.1,30.13,West,275,1.0,5.0,74,0.00,,,0.00,0,Wunderground v.1.15,2013-03-09 09:25:00,
2013-03-09 02:31:00,32.2,24.8,30.13,WSW,256,2.0,5.0,74,0.00,,,0.00,0,Wunderground v.1.15,2013-03-09 09:31:00,
2013-03-09 02:37:00,32.0,25.0,30.13,WNW,284,2.0,5.0,75,0.00,,,0.00,0,Wunderground v.1.15,2013-03-09 09:37:00,
2013-03-09 02:43:00,31.8,24.8,30.13,WSW,251,2.0,5.0,75,0.00,,,0.00,0,Wunderground v.1.15,2013-03-09 09:43:00,
2013-03-09 02:49:00,31.6,24.9,30.13,West,261,2.0,5.0,76,0.00,,,0.00,0,Wunderground v.1.15,2013-03-09 09:49:00,
2013-03-09 02:55:00,31.4,25.0,30.13,West,275,1.0,5.0,77,0.00,,,0.00,0,Wunderground v.1.15,2013-03-09 09:55:00,
2013-03-09 03:01:00,31.2,24.8,30.14,West,277,2.0,5.0,77,0.00,,,0.00,0,Wunderground v.1.15,2013-03-09 10:01:00,
2013-03-09 03:07:00,31.1,24.4,30.14,WSW,249,2.0,5.0,76,0.00,,,0.00,0,Wunderground v.1.15,2013-03-09 10:07:00,
2013-03-09 03:13:00,31.0,24.6,30.14,WSW,248,1.0,6.0,77,0.00,,,0.00,0,Wunderground v.1.15,2013-03-09 10:13:00,
2013-03-09 03:19:00,30.9,24.5,30.14,West,275,1.0,6.0,77,0.00,,,0.00,0,Wunderground v.1.15,2013-03-09 10:19:00,
2013-03-09 03:25:00,30.7,24.7,30.14,WSW,237,1.0,5.0,78,0.00,,,0.00,0,Wunderground v.1.15,2013-03-09 10:25:00,
2013-03-09 03:31:00,30.5,24.5,30.15,WSW,244,1.0,6.0,78,0.00,,,0.00,0,Wunderground v.1.15,2013-03-09 10:31:00,
2013-03-09 03:37:00,30.3,24.3,30.15,West,275,1.0,6.0,78,0.00,,,0.00,0,Wunderground v.1.15,2013-03-09 10:37:00,
2013-03-09 03:42:00,30.1,24.1,30.15,West,275,1.0,5.0,78,0.00,,,0.00,0,Wunderground v.1.15,2013-03-09 10:42:00,
2013-03-09 03:48:00,29.9,24.2,30.15,West,275,0.0,5.0,79,0.00,,,0.00,0,Wunderground v.1.15,2013-03-09 10:48:00,
2013-03-09 03:53:00,29.7,24.3,30.15,West,275,0.0,5.0,80,0.00,,,0.00,0,Wunderground v.1.15,2013-03-09 10:53:00,
2013-03-09 03:59:00,29.5,24.1,30.16,West,275,0.0,5.0,80,0.00,,,0.00,0,Wunderground v.1.15,2013-03-09 10:59:00,
2013-03-09 04:05:00,29.3,23.9,30.16,West,275,0.0,5.0,80,0.00,,,0.00,0,Wunderground v.1.15,2013-03-09 11:05:00,
2013-03-09 04:11:00,29.0,23.9,30.16,West,275,0.0,5.0,81,0.00,,,0.00,0,Wunderground v.1.15,2013-03-09 11:11:00,
2013-03-09 04:17:00,28.6,23.5,30.17,West,275,0.0,5.0,81,0.00,,,0.00,0,Wunderground v.1.15,2013-03-09 11:17:00,
2013-03-09 04:23:00,28.3,23.5,30.17,West,274,0.0,5.0,82,0.00,,,0.00,0,Wunderground v.1.15,2013-03-09 11:23:00,
2013-03-09 04:29:00,28.0,23.5,30.17,West,275,0.0,5.0,83,0.00,,,0.00,0,Wunderground v.1.15,2013-03-09 11:29:00,
2013-03-09 04:35:00,27.7,23.2,30.18,West,275,0.0,5.0,83,0.00,,,0.00,0,Wunderground v.1.15,2013-03-09 11:35:00,
2013-03-09 04:41:00,27.5,23.3,30.18,West,275,0.0,5.0,84,0.00,,,0.00,0,Wunderground v.1.15,2013-03-09 11:41:00,
2013-03-09 04:46:00,27.2,23.3,30.18,West,275,0.0,5.0,85,0.00,,,0.00,0,Wunderground v.1.15,2013-03-09 11:46:00,
2013-03-09 04:52:00,27.0,23.1,30.18,West,275,0.0,5.0,85,0.00,,,0.00,0,Wunderground v.1.15,2013-03-09 11:52:00,
2013-03-09 04:58:00,26.8,22.9,30.18,West,275,0.0,5.0,85,0.00,,,0.00,0,Wunderground v.1.15,2013-03-09 11:58:00,
2013-03-09 05:04:00,26.6,23.0,30.18,West,275,0.0,5.0,86,0.00,,,0.00,0,Wunderground v.1.15,2013-03-09 12:04:00,
2013-03-09 05:10:00,26.3,22.7,30.19,West,275,0.0,5.0,86,0.00,,,0.00,0,Wunderground v.1.15,2013-03-09 12:10:00,
2013-03-09 05:16:00,26.2,22.6,30.19,West,274,0.0,5.0,86,0.00,,,0.00,0,Wunderground v.1.15,2013-03-09 12:16:00,
2013-03-09 05:22:00,26.0,22.4,30.20,West,275,0.0,5.0,86,0.00,,,0.00,0,Wunderground v.1.15,2013-03-09 12:22:00,
2013-03-09 05:28:00,25.7,22.4,30.20,West,274,0.0,5.0,87,0.00,,,0.00,0,Wunderground v.1.15,2013-03-09 12:28:00,
2013-03-09 05:34:00,25.5,22.2,30.20,West,275,0.0,5.0,87,0.00,,,0.00,0,Wunderground v.1.15,2013-03-09 12:34:00,
2013-03-09 05:40:00,25.4,22.1,30.20,West,275,0.0,5.0,87,0.00,,,0.00,0,Wunderground v.1.15,2013-03-09 12:40:00,
2013-03-09 05:46:00,25.2,22.1,30.20,West,275,0.0,5.0,88,0.00,,,0.00,0,Wunderground v.1.15,2013-03-09 12:46:00,
2013-03-09 05:52:00,25.0,21.9,30.20,West,275,0.0,5.0,88,0.00,,,0.00,0,Wunderground v.1.15,2013-03-09 12:52:00,
2013-03-09 05:58:00,24.8,21.8,30.20,West,275,0.0,5.0,88,0.00,,,0.00,0,Wunderground v.1.15,2013-03-09 12:58:00,
2013-03-09 06:03:00,24.7,21.7,30.20,West,275,0.0,5.0,88,0.00,,,0.00,0,Wunderground v.1.15,2013-03-09 13:03:00,
2013-03-09 06:09:00,24.5,21.7,30.21,West,275,0.0,5.0,89,0.00,,,0.00,0,Wunderground v.1.15,2013-03-09 13:09:00,
2013-03-09 06:15:00,24.4,21.6,30.21,West,275,0.0,5.0,89,0.00,,,0.00,0,Wunderground v.1.15,2013-03-09 13:15:00,
2013-03-09 06:20:00,24.2,21.4,30.21,West,275,0.0,5.0,89,0.00,,,0.00,0,Wunderground v.1.15,2013-03-09 13:20:00,
2013-03-09 06:26:00,24.1,21.3,30.22,West,275,0.0,5.0,89,0.00,,,0.00,0,Wunderground v.1.15,2013-03-09 13:26:00,
2013-03-09 06:32:00,23.9,21.1,30.22,West,275,0.0,5.0,89,0.00,,,0.00,0,Wunderground v.1.15,2013-03-09 13:32:00,
2013-03-09 06:38:00,23.8,21.0,30.22,West,275,0.0,5.0,89,0.00,,,0.00,0,Wunderground v.1.15,2013-03-09 13:38:00,
2013-03-09 06:44:00,23.6,21.1,30.23,West,275,0.0,5.0,90,0.00,,,0.00,0,Wunderground v.1.15,2013-03-09 13:44:00,
2013-03-09 06:50:00,23.5,21.0,30.23,West,275,0.0,5.0,90,0.00,,,0.00,0,Wunderground v.1.15,2013-03-09 13:50:00,
2013-03-09 06:56:00,23.4,20.9,30.23,West,275,0.0,5.0,90,0.00,,,0.00,0,Wunderground v.1.15,2013-03-09 13:56:00,
2013-03-09 07:02:00,23.3,20.8,30.23,West,275,0.0,5.0,90,0.00,,,0.00,0,Wunderground v.1.15,2013-03-09 14:02:00,
2013-03-09 07:08:00,23.1,20.6,30.24,West,275,0.0,5.0,90,0.00,,,0.00,5,Wunderground v.1.15,2013-03-09 14:08:00,
2013-03-09 07:14:00,23.0,20.8,30.24,West,275,0.0,5.0,91,0.00,,,0.00,7,Wunderground v.1.15,2013-03-09 14:14:00,
2013-03-09 07:20:00,22.9,20.7,30.24,West,275,0.0,5.0,91,0.00,,,0.00,9,Wunderground v.1.15,2013-03-09 14:20:00,
2013-03-09 07:25:00,22.8,20.6,30.25,West,275,0.0,5.0,91,0.00,,,0.00,11,Wunderground v.1.15,2013-03-09 14:25:00,
2013-03-09 07:31:00,22.8,20.6,30.25,West,275,0.0,5.0,91,0.00,,,0.00,12,Wunderground v.1.15,2013-03-09 14:31:00,
2013-03-09 07:37:00,22.7,20.5,30.25,West,275,0.0,5.0,91,0.00,,,0.00,18,Wunderground v.1.15,2013-03-09 14:37:00,
2013-03-09 07:43:00,22.7,20.5,30.25,West,275,0.0,5.0,91,0.00,,,0.00,47,Wunderground v.1.15,2013-03-09 14:43:00,
2013-03-09 07:49:00,22.7,20.5,30.25,West,275,0.0,5.0,91,0.00,,,0.00,60,Wunderground v.1.15,2013-03-09 14:49:00,
2013-03-09 07:55:00,22.8,20.8,30.25,West,275,0.0,5.0,92,0.00,,,0.00,62,Wunderground v.1.15,2013-03-09 14:55:00,
2013-03-09 08:01:00,23.0,21.0,30.26,West,275,0.0,5.0,92,0.00,,,0.00,102,Wunderground v.1.15,2013-03-09 15:01:00,
2013-03-09 08:07:00,23.3,21.3,30.26,West,275,0.0,5.0,92,0.00,,,0.00,81,Wunderground v.1.15,2013-03-09 15:07:00,
2013-03-09 08:12:00,23.5,21.5,30.27,West,275,0.0,5.0,92,0.00,,,0.00,144,Wunderground v.1.15,2013-03-09 15:12:00,
2013-03-09 08:18:00,24.0,22.3,30.27,West,275,0.0,5.0,93,0.00,,,0.00,171,Wunderground v.1.15,2013-03-09 15:18:00,
2013-03-09 08:24:00,24.7,23.0,30.27,West,275,0.0,5.0,93,0.00,,,0.00,121,Wunderground v.1.15,2013-03-09 15:24:00,
2013-03-09 08:30:00,25.4,23.9,30.27,West,275,0.0,5.0,94,0.00,,,0.00,178,Wunderground v.1.15,2013-03-09 15:30:00,
2013-03-09 08:36:00,26.2,24.5,30.28,West,275,0.0,5.0,93,0.00,,,0.00,250,Wunderground v.1.15,2013-03-09 15:36:00,
2013-03-09 08:42:00,27.0,25.0,30.28,West,274,0.0,5.0,92,0.00,,,0.00,262,Wunderground v.1.15,2013-03-09 15:42:00,
2013-03-09 08:48:00,28.2,25.4,30.28,West,275,0.0,5.0,89,0.00,,,0.00,218,Wunderground v.1.15,2013-03-09 15:48:00,
2013-03-09 08:53:00,29.2,25.0,30.28,NNW,342,0.0,5.0,84,0.00,,,0.00,267,Wunderground v.1.15,2013-03-09 15:53:00,
2013-03-09 08:59:00,30.0,24.6,30.28,South,179,0.0,5.0,80,0.00,,,0.00,151,Wunderground v.1.15,2013-03-09 15:59:00,
2013-03-09 09:05:00,30.6,24.2,30.29,South,180,0.0,5.0,77,0.00,,,0.00,209,Wunderground v.1.15,2013-03-09 16:05:00,
2013-03-09 09:11:00,31.2,24.5,30.29,South,179,0.0,5.0,76,0.00,,,0.00,213,Wunderground v.1.15,2013-03-09 16:11:00,
2013-03-09 09:17:00,31.6,24.3,30.29,NE,44,0.0,5.0,74,0.00,,,0.00,269,Wunderground v.1.15,2013-03-09 16:17:00,
2013-03-09 09:23:00,32.0,24.0,30.29,NE,55,0.0,5.0,72,0.00,,,0.00,315,Wunderground v.1.15,2013-03-09 16:23:00,
2013-03-09 09:29:00,32.4,24.4,30.29,NE,55,0.0,5.0,72,0.00,,,0.00,369,Wunderground v.1.15,2013-03-09 16:29:00,
2013-03-09 09:35:00,33.0,24.6,30.29,NE,55,0.0,5.0,71,0.00,,,0.00,383,Wunderground v.1.15,2013-03-09 16:35:00,
2013-03-09 09:41:00,33.7,24.6,30.30,ENE,61,0.0,5.0,69,0.00,,,0.00,397,Wunderground v.1.15,2013-03-09 16:41:00,
2013-03-09 09:47:00,34.2,24.7,30.30,ENE,76,1.0,5.0,68,0.00,,,0.00,413,Wunderground v.1.15,2013-03-09 16:47:00,
2013-03-09 09:53:00,34.4,24.2,30.30,ENE,57,1.0,5.0,66,0.00,,,0.00,425,Wunderground v.1.15,2013-03-09 16:53:00,
2013-03-09 09:59:00,34.8,24.6,30.30,ENE,68,1.0,5.0,66,0.00,,,0.00,441,Wunderground v.1.15,2013-03-09 16:59:00,
2013-03-09 10:05:00,35.1,24.9,30.30,ENE,68,1.0,5.0,66,0.00,,,0.00,454,Wunderground v.1.15,2013-03-09 17:05:00,
2013-03-09 10:10:00,35.2,24.6,30.30,East,80,1.0,1.0,65,0.00,,,0.00,464,Wunderground v.1.15,2013-03-09 17:10:00,
2013-03-09 10:16:00,35.5,25.3,30.30,East,82,1.0,5.0,66,0.00,,,0.00,480,Wunderground v.1.15,2013-03-09 17:16:00,
2013-03-09 10:22:00,36.6,25.2,30.30,East,82,0.0,5.0,63,0.00,,,0.00,501,Wunderground v.1.15,2013-03-09 17:22:00,
2013-03-09 10:28:00,37.6,25.7,30.30,ENE,60,0.0,5.0,62,0.00,,,0.00,510,Wunderground v.1.15,2013-03-09 17:28:00,
2013-03-09 10:34:00,37.5,25.3,30.30,NE,47,1.0,5.0,61,0.00,,,0.00,515,Wunderground v.1.15,2013-03-09 17:34:00,
2013-03-09 10:40:00,38.0,25.7,30.30,East,95,0.0,5.0,61,0.00,,,0.00,524,Wunderground v.1.15,2013-03-09 17:40:00,
2013-03-09 10:46:00,38.8,26.1,30.30,NNW,339,1.0,5.0,60,0.00,,,0.00,526,Wunderground v.1.15,2013-03-09 17:46:00,
2013-03-09 10:52:00,39.3,25.7,30.30,West,276,2.0,8.0,58,0.00,,,0.00,552,Wunderground v.1.15,2013-03-09 17:52:00,
2013-03-09 10:58:00,39.3,25.7,30.30,NNW,334,2.0,8.0,58,0.00,,,0.00,76,Wunderground v.1.15,2013-03-09 17:58:00,
2013-03-09 11:04:00,39.3,25.7,30.30,WNW,300,1.0,5.0,58,0.00,,,0.00,559,Wunderground v.1.15,2013-03-09 18:04:00,
2013-03-09 11:10:00,39.3,25.3,30.30,WNW,299,2.0,2.0,57,0.00,,,0.00,584,Wunderground v.1.15,2013-03-09 18:10:00,
2013-03-09 11:16:00,39.8,25.8,30.30,WSW,238,2.0,5.0,57,0.00,,,0.00,578,Wunderground v.1.15,2013-03-09 18:16:00,
2013-03-09 11:22:00,40.4,25.5,30.30,SE,146,2.0,5.0,55,0.00,,,0.00,584,Wunderground v.1.15,2013-03-09 18:22:00,
2013-03-09 11:28:00,41.2,25.3,30.30,WSW,256,1.0,5.0,53,0.00,,,0.00,591,Wunderground v.1.15,2013-03-09 18:28:00,
2013-03-09 11:33:00,41.5,25.6,30.30,SW,219,1.0,5.0,53,0.00,,,0.00,596,Wunderground v.1.15,2013-03-09 18:33:00,
2013-03-09 11:39:00,42.2,25.3,30.30,WNW,296,1.0,6.0,51,0.00,,,0.00,610,Wunderground v.1.15,2013-03-09 18:39:00,
2013-03-09 11:45:00,42.1,24.8,30.30,SSE,152,2.0,7.0,50,0.00,,,0.00,613,Wunderground v.1.15,2013-03-09 18:45:00,
2013-03-09 11:51:00,41.9,24.6,30.30,South,188,2.0,5.0,50,0.00,,,0.00,615,Wunderground v.1.15,2013-03-09 18:51:00,
2013-03-09 11:57:00,42.3,25.4,30.30,South,171,2.0,5.0,51,0.00,,,0.00,619,Wunderground v.1.15,2013-03-09 18:57:00,
2013-03-09 12:03:00,42.7,25.3,30.30,West,281,3.0,5.0,50,0.00,,,0.00,621,Wunderground v.1.15,2013-03-09 19:03:00,
2013-03-09 12:09:00,42.5,25.1,30.30,SW,223,4.0,7.0,50,0.00,,,0.00,624,Wunderground v.1.15,2013-03-09 19:09:00,
2013-03-09 12:15:00,42.5,24.7,30.30,West,279,4.0,5.0,49,0.00,,,0.00,626,Wunderground v.1.15,2013-03-09 19:15:00,
2013-03-09 12:21:00,42.8,24.9,30.30,SSW,201,3.0,5.0,49,0.00,,,0.00,629,Wunderground v.1.15,2013-03-09 19:21:00,
2013-03-09 12:27:00,43.0,25.1,30.30,SE,124,3.0,5.0,49,0.00,,,0.00,631,Wunderground v.1.15,2013-03-09 19:27:00,
2013-03-09 12:33:00,43.1,25.2,30.30,ENE,62,2.0,5.0,49,0.00,,,0.00,635,Wunderground v.1.15,2013-03-09 19:33:00,
2013-03-09 12:39:00,43.3,25.9,30.30,NW,306,1.0,5.0,50,0.00,,,0.00,640,Wunderground v.1.15,2013-03-09 19:39:00,
2013-03-09 12:45:00,44.0,25.5,30.30,SSW,200,2.0,5.0,48,0.00,,,0.00,661,Wunderground v.1.15,2013-03-09 19:45:00,
2013-03-09 12:50:00,43.8,25.9,30.30,ESE,118,3.0,5.0,49,0.00,,,0.00,114,Wunderground v.1.15,2013-03-09 19:50:00,
2013-03-09 12:56:00,43.2,25.3,30.30,WNW,298,4.0,8.0,49,0.00,,,0.00,642,Wunderground v.1.15,2013-03-09 19:56:00,
2013-03-09 13:02:00,43.6,25.2,30.30,West,260,2.0,5.0,48,0.00,,,0.00,645,Wunderground v.1.15,2013-03-09 20:02:00,
2013-03-09 13:08:00,43.5,25.6,30.29,SW,227,2.0,5.0,49,0.00,,,0.00,633,Wunderground v.1.15,2013-03-09 20:08:00,
2013-03-09 13:14:00,43.5,25.1,30.29,ESE,106,2.0,5.0,48,0.00,,,0.00,650,Wunderground v.1.15,2013-03-09 20:14:00,
2013-03-09 13:20:00,43.4,25.0,30.29,West,270,1.0,1.0,48,0.00,,,0.00,118,Wunderground v.1.15,2013-03-09 20:20:00,
2013-03-09 13:26:00,43.3,25.4,30.29,NNW,340,2.0,8.0,49,0.00,,,0.00,635,Wunderground v.1.15,2013-03-09 20:26:00,
2013-03-09 13:31:00,43.5,25.6,30.29,SW,234,3.0,5.0,49,0.00,,,0.00,626,Wunderground v.1.15,2013-03-09 20:31:00,
2013-03-09 13:37:00,44.2,25.7,30.30,SE,142,1.0,7.0,48,0.00,,,0.00,631,Wunderground v.1.15,2013-03-09 20:37:00,
2013-03-09 13:43:00,44.3,25.3,30.30,ESE,106,2.0,6.0,47,0.00,,,0.00,613,Wunderground v.1.15,2013-03-09 20:43:00,
2013-03-09 13:49:00,44.2,25.7,30.30,South,184,3.0,6.0,48,0.00,,,0.00,608,Wunderground v.1.15,2013-03-09 20:49:00,
2013-03-09 13:55:00,44.6,25.6,30.30,WNW,290,2.0,5.0,47,0.00,,,0.00,599,Wunderground v.1.15,2013-03-09 20:55:00,
2013-03-09 14:01:00,45.0,26.5,30.30,WNW,294,2.0,7.0,48,0.00,,,0.00,626,Wunderground v.1.15,2013-03-09 21:01:00,
2013-03-09 14:07:00,45.0,26.5,30.31,SSE,150,3.0,8.0,48,0.00,,,0.00,608,Wunderground v.1.15,2013-03-09 21:07:00,
2013-03-09 14:13:00,45.1,25.5,30.30,NNW,333,3.0,5.0,46,0.00,,,0.00,598,Wunderground v.1.15,2013-03-09 21:13:00,
2013-03-09 14:19:00,45.2,25.6,30.30,SE,143,3.0,5.0,46,0.00,,,0.00,580,Wunderground v.1.15,2013-03-09 21:19:00,
2013-03-09 14:25:00,45.3,25.7,30.30,SSE,156,3.0,7.0,46,0.00,,,0.00,564,Wunderground v.1.15,2013-03-09 21:25:00,
2013-03-09 14:31:00,45.3,25.7,30.30,WNW,294,3.0,5.0,46,0.00,,,0.00,559,Wunderground v.1.15,2013-03-09 21:31:00,
2013-03-09 14:36:00,45.5,25.9,30.30,WNW,286,3.0,6.0,46,0.00,,,0.00,557,Wunderground v.1.15,2013-03-09 21:36:00,
2013-03-09 14:42:00,45.4,25.3,30.30,WNW,284,3.0,6.0,45,0.00,,,0.00,563,Wunderground v.1.15,2013-03-09 21:42:00,
2013-03-09 14:48:00,45.2,25.6,30.30,South,186,4.0,6.0,46,0.00,,,0.00,534,Wunderground v.1.15,2013-03-09 21:48:00,
2013-03-09 14:54:00,45.4,25.8,30.31,WNW,288,3.0,6.0,46,0.00,,,0.00,531,Wunderground v.1.15,2013-03-09 21:54:00,
2013-03-09 15:00:00,45.3,25.7,30.30,WNW,292,4.0,4.0,46,0.00,,,0.00,524,Wunderground v.1.15,2013-03-09 22:00:00,
2013-03-09 15:06:00,45.4,25.8,30.30,West,267,3.0,6.0,46,0.00,,,0.00,513,Wunderground v.1.15,2013-03-09 22:06:00,
2013-03-09 15:12:00,45.4,25.8,30.31,WNW,287,3.0,5.0,46,0.00,,,0.00,494,Wunderground v.1.15,2013-03-09 22:12:00,
2013-03-09 15:18:00,45.5,26.4,30.31,South,186,3.0,5.0,47,0.00,,,0.00,482,Wunderground v.1.15,2013-03-09 22:18:00,
2013-03-09 15:24:00,45.6,25.5,30.30,SSE,168,2.0,5.0,45,0.00,,,0.00,473,Wunderground v.1.15,2013-03-09 22:24:00,
2013-03-09 15:30:00,45.9,26.3,30.31,SE,132,1.0,5.0,46,0.00,,,0.00,255,Wunderground v.1.15,2013-03-09 22:30:00,
2013-03-09 15:36:00,45.9,26.3,30.31,WNW,288,1.0,5.0,46,0.00,,,0.00,58,Wunderground v.1.15,2013-03-09 22:36:00,
2013-03-09 15:42:00,45.6,25.5,30.31,WSW,252,2.0,5.0,45,0.00,,,0.00,44,Wunderground v.1.15,2013-03-09 22:42:00,
2013-03-09 15:47:00,45.3,25.7,30.31,NNE,17,2.0,5.0,46,0.00,,,0.00,46,Wunderground v.1.15,2013-03-09 22:47:00,
2013-03-09 15:52:00,45.0,25.4,30.31,ESE,121,1.0,5.0,46,0.00,,,0.00,58,Wunderground v.1.15,2013-03-09 22:52:00,
2013-03-09 15:58:00,44.7,26.2,30.31,WSW,250,3.0,5.0,48,0.00,,,0.00,51,Wunderground v.1.15,2013-03-09 22:58:00,
2013-03-09 16:04:00,44.3,25.8,30.32,NW,322,2.0,5.0,48,0.00,,,0.00,58,Wunderground v.1.15,2013-03-09 23:04:00,
2013-03-09 16:10:00,44.1,25.6,30.32,SSE,150,1.0,5.0,48,0.00,,,0.00,65,Wunderground v.1.15,2013-03-09 23:10:00,
2013-03-09 16:16:00,44.0,25.5,30.31,WSW,246,1.0,5.0,48,0.00,,,0.00,47,Wunderground v.1.15,2013-03-09 23:16:00,
2013-03-09 16:22:00,43.9,26.0,30.31,NW,323,2.0,5.0,49,0.00,,,0.00,49,Wunderground v.1.15,2013-03-09 23:22:00,
2013-03-09 16:28:00,43.9,26.0,30.31,SE,136,1.0,5.0,49,0.00,,,0.00,232,Wunderground v.1.15,2013-03-09 23:28:00,
2013-03-09 16:34:00,43.9,26.0,30.32,NNW,339,1.0,5.0,49,0.00,,,0.00,265,Wunderground v.1.15,2013-03-09 23:34:00,
2013-03-09 16:40:00,44.0,26.0,30.32,South,171,1.0,5.0,49,0.00,,,0.00,178,Wunderground v.1.15,2013-03-09 23:40:00,
2013-03-09 16:46:00,44.0,28.4,30.32,West,269,1.0,5.0,54,0.00,,,0.00,83,Wunderground v.1.15,2013-03-09 23:46:00,
2013-03-09 16:52:00,44.0,27.0,30.31,South,190,1.0,5.0,51,0.00,,,0.00,76,Wunderground v.1.15,2013-03-09 23:52:00,
2013-03-09 16:57:00,44.0,27.5,30.31,South,190,0.0,5.0,52,0.00,,,0.00,63,Wunderground v.1.15,2013-03-09 23:57:00,
2013-03-09 20:15:00,32.0,27.1,30.37,WNW,289,1.0,5.0,82,0.00,,,0.00,0,Wunderground v.1.15,2013-03-10 03:15:00,
2013-03-09 20:21:00,31.7,26.8,30.37,WNW,289,1.0,5.0,82,0.00,,,0.00,0,Wunderground v.1.15,2013-03-10 03:21:00,
2013-03-09 20:27:00,31.4,26.5,30.37,WNW,289,1.0,5.0,82,0.00,,,0.00,0,Wunderground v.1.15,2013-03-10 03:27:00,
2013-03-09 20:32:00,31.1,26.5,30.38,WNW,289,1.0,5.0,83,0.00,,,0.00,0,Wunderground v.1.15,2013-03-10 03:32:00,
2013-03-09 20:38:00,30.8,26.2,30.38,SSW,192,1.0,5.0,83,0.00,,,0.00,0,Wunderground v.1.15,2013-03-10 03:38:00,
2013-03-09 20:44:00,30.6,26.1,30.38,WSW,257,1.0,5.0,83,0.00,,,0.00,0,Wunderground v.1.15,2013-03-10 03:44:00,
2013-03-09 20:50:00,30.4,26.1,30.38,West,275,1.0,5.0,84,0.00,,,0.00,0,Wunderground v.1.15,2013-03-10 03:50:00,
2013-03-09 20:55:00,30.4,26.1,30.38,WNW,286,1.0,5.0,84,0.00,,,0.00,0,Wunderground v.1.15,2013-03-10 03:55:00,
2013-03-09 21:00:00,30.5,26.0,30.39,WSW,242,1.0,5.0,83,0.00,,,0.00,0,Wunderground v.1.15,2013-03-10 04:00:00,
2013-03-09 21:05:00,30.9,26.1,30.39,WSW,241,1.0,5.0,82,0.00,,,0.00,0,Wunderground v.1.15,2013-03-10 04:05:00,
2013-03-09 21:11:00,31.5,26.0,30.39,WNW,300,1.0,5.0,80,0.00,,,0.00,0,Wunderground v.1.15,2013-03-10 04:11:00,
2013-03-09 21:17:00,32.8,26.4,30.40,NNW,338,2.0,6.0,77,0.00,,,0.00,0,Wunderground v.1.15,2013-03-10 04:17:00,
2013-03-09 21:22:00,33.5,26.4,30.40,WNW,288,2.0,5.0,75,0.00,,,0.00,0,Wunderground v.1.15,2013-03-10 04:22:00,
2013-03-09 21:28:00,34.2,26.4,30.40,North,9,2.0,6.0,73,0.00,,,0.00,0,Wunderground v.1.15,2013-03-10 04:28:00,
2013-03-09 21:34:00,34.4,26.6,30.40,WNW,283,1.0,5.0,73,0.00,,,0.00,0,Wunderground v.1.15,2013-03-10 04:34:00,
2013-03-09 21:40:00,34.4,26.3,30.40,WNW,283,0.0,5.0,72,0.00,,,0.00,0,Wunderground v.1.15,2013-03-10 04:40:00,
2013-03-09 21:45:00,34.4,26.3,30.40,WNW,283,0.0,5.0,72,0.00,,,0.00,0,Wunderground v.1.15,2013-03-10 04:45:00,
2013-03-09 21:51:00,34.4,26.3,30.40,SSE,159,0.0,5.0,72,0.00,,,0.00,0,Wunderground v.1.15,2013-03-10 04:51:00,
2013-03-09 21:56:00,34.4,26.3,30.40,WSW,241,1.0,5.0,72,0.00,,,0.00,0,Wunderground v.1.15,2013-03-10 04:56:00,
2013-03-09 22:00:00,34.4,26.3,30.41,WSW,242,1.0,1.0,72,0.00,,,0.00,0,Wunderground v.1.15,2013-03-10 05:00:00,
2013-03-09 22:01:00,34.4,26.3,30.41,WSW,241,1.0,5.0,72,0.00,,,0.00,0,Wunderground v.1.15,2013-03-10 05:01:00,
2013-03-09 22:06:00,34.2,26.4,30.42,West,276,1.0,5.0,73,0.00,,,0.00,0,Wunderground v.1.15,2013-03-10 05:06:00,
2013-03-09 22:08:00,34.1,26.3,30.42,SE,138,1.0,5.0,73,0.00,,,0.00,0,Wunderground v.1.15,2013-03-10 05:08:00,
2013-03-09 22:14:00,34.1,26.3,30.42,SSW,200,2.0,5.0,73,0.00,,,0.00,0,Wunderground v.1.15,2013-03-10 05:14:00,
2013-03-09 22:20:00,34.0,26.3,30.42,SSW,199,1.0,5.0,73,0.00,,,0.00,0,Wunderground v.1.15,2013-03-10 05:20:00,
2013-03-09 22:26:00,33.8,26.1,30.42,South,170,1.0,5.0,73,0.00,,,0.00,0,Wunderground v.1.15,2013-03-10 05:26:00,
2013-03-09 22:31:00,33.4,26.0,30.42,WNW,300,1.0,5.0,74,0.00,,,0.00,0,Wunderground v.1.15,2013-03-10 05:31:00,
2013-03-09 22:37:00,33.1,25.7,30.42,SW,218,1.0,5.0,74,0.00,,,0.00,0,Wunderground v.1.15,2013-03-10 05:37:00,
2013-03-09 22:42:00,32.8,25.7,30.42,WSW,247,1.0,5.0,75,0.00,,,0.00,0,Wunderground v.1.15,2013-03-10 05:42:00,
2013-03-09 22:48:00,32.5,25.5,30.42,WSW,247,0.0,5.0,75,0.00,,,0.00,0,Wunderground v.1.15,2013-03-10 05:48:00,
2013-03-09 22:54:00,32.5,25.8,30.42,SW,233,1.0,5.0,76,0.00,,,0.00,0,Wunderground v.1.15,2013-03-10 05:54:00,
2013-03-09 23:00:00,32.4,25.7,30.42,ENE,76,1.0,5.0,76,0.00,,,0.00,0,Wunderground v.1.15,2013-03-10 06:00:00,
2013-03-09 23:06:00,32.4,25.7,30.42,SSW,202,1.0,9.0,76,0.00,,,0.00,0,Wunderground v.1.15,2013-03-10 06:06:00,
2013-03-09 23:12:00,32.2,25.5,30.42,SSW,209,1.0,5.0,76,0.00,,,0.00,0,Wunderground v.1.15,2013-03-10 06:12:00,
2013-03-09 23:18:00,32.2,25.5,30.42,WSW,252,2.0,5.0,76,0.00,,,0.00,0,Wunderground v.1.15,2013-03-10 06:18:00,
2013-03-09 23:24:00,32.2,25.5,30.42,West,261,2.0,5.0,76,0.00,,,0.00,0,Wunderground v.1.15,2013-03-10 06:24:00,
2013-03-09 23:30:00,32.1,25.4,30.43,SSE,159,2.0,5.0,76,0.00,,,0.00,0,Wunderground v.1.15,2013-03-10 06:30:00,
2013-03-09 23:35:00,32.0,25.3,30.43,WSW,254,2.0,5.0,76,0.00,,,0.00,0,Wunderground v.1.15,2013-03-10 06:35:00,
2013-03-09 23:41:00,31.9,25.2,30.43,SW,215,1.0,4.0,76,0.00,,,0.00,0,Wunderground v.1.15,2013-03-10 06:41:00,
2013-03-09 23:47:00,31.7,25.0,30.43,SSW,209,1.0,5.0,76,0.00,,,0.00,0,Wunderground v.1.15,2013-03-10 06:47:00,
2013-03-09 23:53:00,31.4,25.0,30.43,WNW,287,1.0,5.0,77,0.00,,,0.00,0,Wunderground v.1.15,2013-03-10 06:53:00,
2013-03-09 23:59:00,31.1,25.0,30.43,South,172,1.0,5.0,78,0.00,,,0.00,0,Wunderground v.1.15,2013-03-10 06:59:00,